Regional Weather Roundup
Issued by NWS

Home | Current Version | Previous Version | Text Only | Print | Product List | Glossary On
Versions: 1 2 3 4 5 6 7 8 9 10 11 12 13 14 15 16 17 18 19 20 21 22 23 24 25 26 27 28 29 30 31 32 33 34 35 36 37 38 39 40 41 42 43 44 45 46 47 48 49 50
000
ASUS43 KLOT 011600
RWRIL

ILLINOIS REGIONAL WEATHER ROUNDUP
NATIONAL WEATHER SERVICE CHICAGO/ROMEOVILLE IL
1000 AM CST SUN FEB 01 2015

NOTE: "FAIR" INDICATES FEW OR NO CLOUDS BELOW 12,000 FEET WITH NO
SIGNIFICANT WEATHER AND/OR OBSTRUCTIONS TO VISIBILITY.

* THESE STATIONS ARE NOT UNDER NWS QUALITY CONTROL. THEY ALSO MAY NOT
  REPORT WEATHER SUCH AS PRECIPITATION OR FOG.

ILZ001-002-007-009-015-016-024-011700-
NORTHWEST ILLINOIS

CITY           SKY/WX    TMP DP  RH WIND       PRES   REMARKS
MOLINE         LGT SNOW  31  28  89 NE18G29   29.80S VSB 3/4 WCI  19
STERLING*        N/A    N/A N/A N/A MISG        N/A
$$

ILZ003-004-008-010-011-017-018-011700-
NORTH CENTRAL ILLINOIS

CITY           SKY/WX    TMP DP  RH WIND       PRES   REMARKS
ROCKFORD       SNOW      25  21  85 NE26      29.91F VSB 1/2 WCI   9
$$

ILZ005-006-012>014-019>023-011700-
NORTHEAST ILLINOIS

CITY           SKY/WX    TMP DP  RH WIND       PRES   REMARKS
CHICAGO-OHARE  HVY SNOW  29  27  92 NE18      29.90F VSB 1/4 WCI  16
CHICAGO-MIDWAY SNOW      33  31  92 NE17      29.88F VSB 1/2 WCI  22
AURORA         SNOW      31  27  85 NE23      29.86F VSB 1/4 WCI  18
WAUKEGAN       SNOW      25  24  96 NE20G28   29.95F VSB<1/4 WCI  11
DUPAGE AIRPORT SNOW      30  27  88 NE21G26   29.87F VSB 1/2 WCI  17
WHEELING       SNOW      29  26  89 NE14G25   29.94F VSB 1/4 WCI  18
NORTHERLY ISL    N/A     30  29  96 NE23        N/A  WCI  17
$$

LMZ740>746-011700-
SOUTHERN LAKE MICHIGAN

STATION/POSITION SKY/WX   TEMP    WIND        PRES    VSBY  WAVE
                          AIR SEA DIR/SP/G                  HT/PER
                          (F)     (DEG/KT/KT) (MB)    (MI)  (FT/S)
WAUKEGAN HARBOR            27      60/ 33/ 38   N/A
HARRISON CRIB              30      70/ 23/ 27   N/A
BURNHAM HARBOR             30      60/ 20/ 20   N/A
CALUMET HARBOR             31      50/ 17/ 21   N/A
MICHIGAN CITY              30      60/ 10/ 13   N/A
$$

ILZ025>027-034>036-040-047-049-050-058-095>099-011700-
WEST-CENTRAL ILLINOIS

CITY           SKY/WX    TMP DP  RH WIND       PRES   REMARKS
QUINCY         SNOW      33  31  92 E3        29.71F VSB 1/2
$$

ILZ028>032-037-038-041>044-048-051>054-059>061-011700-
CENTRAL ILLINOIS

CITY           SKY/WX    TMP DP  RH WIND       PRES   REMARKS
BLOOMINGTON    LGT SNOW  34  34 100 SE9       29.76F FOG     WCI  26
DECATUR        CLOUDY    34  32  92 SE12      29.73F FOG     WCI  25
PEORIA         LGT SNOW  34  32  92 E8        29.76F FOG     WCI  27
SPRINGFIELD    LGT SNOW  34  32  92 SE8       29.73F FOG     WCI  27
TAYLORVILLE    NOT AVBL
$$

ILZ033-039-045-046-055>057-062-063-011700-
EAST-CENTRAL ILLINOIS

CITY           SKY/WX    TMP DP  RH WIND       PRES   REMARKS
CHAMPAIGN      LGT SNOW  33  32  96 SE13      29.76F VSB 3/4 WCI  24
MATTOON        CLOUDY    34  31  88 SE14      29.75F WCI  25
$$

ILZ079-100>102-011700-
SOUTHWEST ILLINOIS

CITY           SKY/WX    TMP DP  RH WIND       PRES   REMARKS
ALTON          DRIZZLE   36  36 100 SE10      29.72F WCI  28
BELLEVILLE     CLOUDY    37  37 100 SE6       29.72F WCI  32
CAHOKIA*       CLOUDY    38  37  97 SE7       29.72F FOG     WCI  33
$$

ILZ064>066-069>071-074>076-080>082-084>086-088>090-092>094-011700-
SOUTH-CENTRAL ILLINOIS

CITY           SKY/WX    TMP DP  RH WIND       PRES   REMARKS
CARBONDALE     CLOUDY    42  40  92 S8        29.76F FOG
MARION         LGT RAIN  43  41  93 S8        29.78F
MT. VERNON     CLOUDY    37  32  81 CALM      29.77F
$$

ILZ067-068-072-073-078-083-087-091-011700-
SOUTHEAST ILLINOIS

CITY           SKY/WX    TMP DP  RH WIND       PRES   REMARKS
LAWRENCEVILLE  LGT RAIN  37  35  92 E5        29.81F FOG     WCI  33
$$

ABBREVIATIONS USED IN REMARKS
   TC - TEMPERATURE IN CELSIUS
  WCI - WIND CHILL INDEX
   HX - HEAT INDEX
  VSB - VISIBILITY
$$



USA.gov is the U.S. government's official web portal to all federal, state and local government web resources and services.